CMS-02 (GSAT 24)

Last updated on Sun Apr 12 2026 00:02:56 GMT+0000 (Coordinated Universal Time)

1 52903U 22067A 26101.47406078 -.00000164 00000+0 00000+0 0 9992 2 52903 0.0393 252.1503 0002457 89.8765 111.3542 1.00273602 13939
UTC large
Height (km)
Speed (km/s)
/
Latitude / Longitude
Inclination (degrees)
Orbital Period (minutes)
Azimuth
Elevation
Range (km)
Doppler Factor

Next 0 passes for location: London (51.5072 / 0.1276)

No passes found over London.
CMS-02 (GSAT 24)